sat.trackr.live / text

‹ back to catalog

STARLINK-4084

NORAD 52657 · 2022-053B

PAYLOAD ACTIVE UNKNOWN

§ Identity

Operator
Country
US
Launch date
2022-05-18
Launch site
AFETR
Launch vehicle
Mass (kg)
RCS (m²)

Purposes: comms

External: N2YO · Heavens-Above · Gunter

§ Orbital elements

Epoch: 2026-05-25T02:29:30.848064Z

Period
95.44 min
Inclination
53.2127°
Eccentricity
0.0001001
Mean motion
15.08831627 rev/d
Perigee alt
539.1 km
Apogee alt
540.5 km
Semi-major
6,917.9 km
B*
1.4875e-5
RAAN
171.4024°
Arg perigee
91.3271°
Mean anomaly
268.7836°
Rev number
22,294

§ Raw data

STARLINK-40841 52657U 22053B   26145.10382926 -.00000051  00000+0  14875-4 0  99912 52657  53.2127 171.4024 0001001  91.3271 268.7836 15.08831627222941

JSON: /api/v1/satellites/52657 · /tle

For live sub-satellite position, see the globe view (requires WebGL).

§ Visibility from observer

Set your observer location to see the next 7 days of passes ≥ 10°. The values pass through the URL so the page stays shareable.

No JS? Fill the form by hand. The geolocation button needs JavaScript.